This demonstration page uses our WeatherBlox Daily Observations layout. Learn more.

Left ArrowRight Arrow

53.62937, 11.41316

Hourly Observations for March 31, 2021

Temp ( °F °C ) Dew Point ( °F °C ) Humidity (%) Winds ( mph kmh ) Pressure ( in mb ) Visibility ( mi km ) Precip ( " mm )
7:50 am 07:50 Partly Cloudy with Patchy Fog 37 3 37 3 100 100 VRB 1 2 30.24 1024 30 48 N/A
8:20 am 08:20 Mostly Sunny 43 6 41 5 93 93 SE 1 2 30.24 1024 7 11 N/A
8:50 am 08:50 Mostly Sunny 48 9 43 6 82 82 Calm 30.24 1024 7 11 N/A
9:20 am 09:20 Mostly Sunny 52 11 45 7 77 77 VRB 1 2 30.24 1024 7 11 N/A
9:50 am 09:50 Mostly Sunny 55 13 43 6 63 63 VRB 2 4 30.24 1024 7 11 N/A
10:20 am 10:20 Mostly Sunny 61 16 45 7 55 55 VRB 1 2 30.24 1024 7 11 N/A
10:50 am 10:50 Mostly Sunny 61 16 45 7 55 55 VRB 2 4 30.21 1023 7 11 N/A
11:20 am 11:20 Mostly Sunny 64 18 43 6 46 46 ESE 3 6 30.21 1023 7 11 N/A
11:50 am 11:50 Mostly Sunny 66 19 39 4 37 37 SSE 5 7 30.21 1023 7 11 N/A
12:20 pm 12:20 Mostly Sunny 66 19 41 5 40 40 ESE 5 7 30.18 1022 7 11 N/A
12:50 pm 12:50 Mostly Sunny 68 20 41 5 38 38 SE 5 7 30.18 1022 7 11 N/A
1:20 pm 13:20 Mostly Sunny 68 20 37 3 33 33 ESE 5 7 30.18 1022 7 11 N/A
1:50 pm 13:50 Mostly Sunny 72 22 41 5 33 33 ESE 5 7 30.15 1021 7 11 N/A
2:20 pm 14:20 Mostly Sunny 72 22 39 4 31 31 VRB 3 6 30.15 1021 7 11 N/A
2:50 pm 14:50 Mostly Sunny 73 23 34 1 23 23 VRB 3 6 30.15 1021 7 11 N/A
3:20 pm 15:20 Mostly Sunny 72 22 34 1 25 25 SE 3 6 30.12 1020 7 11 N/A
3:50 pm 15:50 Mostly Sunny 73 23 36 2 25 25 VRB 6 9 30.12 1020 7 11 N/A
4:20 pm 16:20 Mostly Sunny 73 23 37 3 27 27 SSW 7 11 30.12 1020 7 11 N/A
4:50 pm 16:50 Mostly Sunny 75 24 37 3 25 25 VRB 3 6 30.09 1019 7 11 N/A
5:20 pm 17:20 Mostly Sunny 73 23 37 3 27 27 SW 5 7 30.09 1019 7 11 N/A
5:50 pm 17:50 Mostly Sunny 73 23 39 4 29 29 VRB 2 4 30.09 1019 7 11 N/A
6:20 pm 18:20 Mostly Sunny 72 22 39 4 31 31 NE 3 6 30.09 1019 7 11 N/A
6:50 pm 18:50 Mostly Sunny 68 20 43 6 40 40 NNE 5 7 30.09 1019 7 11 N/A
7:20 pm 19:20 Mostly Sunny 63 17 41 5 45 45 VRB 2 4 30.06 1018 7 11 N/A
7:50 pm 19:50 Mostly Sunny 63 17 41 5 45 45 VRB 2 4 30.06 1018 7 11 N/A
8:20 pm 20:20 Mostly Clear 59 15 41 5 51 51 VRB 2 4 30.09 1019 7 11 N/A
8:50 pm 20:50 Mostly Clear 57 14 41 5 55 55 VRB 2 4 30.09 1019 7 11 N/A
9:20 pm 21:20 Mostly Clear 55 13 39 4 55 55 VRB 1 2 30.09 1019 7 11 N/A
9:50 pm 21:50 Mostly Clear 52 11 39 4 62 62 VRB 1 2 30.09 1019 7 11 N/A

Powered by AerisWeather